{"data":{"norad_id":33274,"intl_designator":"2008-038A","name":"SUPERBIRD-C2","alt_names":[],"object_type":"PAYLOAD","status":"ACTIVE","operator":null,"country":"JPN","launch_date":"2008-08-14","launch_site_code":"FRGUI","launch_vehicle":null,"mission":null,"orbit_class":"UNKNOWN","rcs_meters":12.6191,"size_class":null,"mass_kg":null,"dimensions":null,"purposes":["comms"],"wikipedia_slug":null,"has_3d_model":false,"image_url":null,"decayed_at":null,"tle_current":{"epoch":"2026-09-19T20:41:38.647104Z","epoch_age_seconds":73310,"freshness":"FRESH","line1":"1 33274U 08038A   26262.86225286 -.00000310  00000+0  00000+0 0  9998","line2":"2 33274   2.5980  79.9945 0005672  71.3420 293.8645  1.00270720106682","mean_motion":1.0027072,"eccentricity":0.0005672,"inclination_deg":2.598,"raan_deg":79.9945,"arg_perigee_deg":71.342,"mean_anomaly_deg":293.8645,"bstar":0,"rev_number":10668,"period_min":1436.1121571681,"perigee_km":35762.977516682,"apogee_km":35810.809527306,"semimajor_km":42165.030521994,"source":"CELESTRAK","updated_at":"2026-09-20T09:00:35.133733Z"}}}